| time (UTC) | temp F | wind direction | speed MPH | gust MPH | rain 1hr in | rain 24hr in | rain mn in | humidity % | barometer mb |
| 20260503221507 | 81 | 176 | 2.0 | 6.0 | 0.00 | 0.00 | 0.00 | 24 | 1008.4 |
| 20260503220006 | 81 | 257 | 1.0 | 4.0 | 0.00 | 0.00 | 0.00 | 25 | 1008.7 |
| 20260503214500 | 79 | 300 | 2.0 | 6.0 | 0.00 | 0.00 | 0.00 | 25 | 1009.0 |
| 20260503213133 | 78 | 244 | 4.0 | 9.0 | 0.00 | 0.00 | 0.00 | 26 | 1009.1 |
| 20260503211620 | 79 | 282 | 3.0 | 9.0 | 0.00 | 0.00 | 0.00 | 25 | 1009.3 |
| 20260503210054 | 79 | 237 | 1.0 | 5.0 | 0.00 | 0.00 | 0.00 | 24 | 1009.6 |
| 20260503204603 | 79 | 287 | 2.0 | 6.0 | 0.00 | 0.00 | 0.00 | 24 | 1009.9 |
| 20260503203049 | 79 | 264 | 1.0 | 5.0 | 0.00 | 0.00 | 0.00 | 24 | 1010.0 |
| 20260503201548 | 78 | 250 | 2.0 | 5.0 | 0.00 | 0.00 | 0.00 | 24 | 1010.2 |
| 20260503200046 | 78 | 154 | 2.0 | 6.0 | 0.00 | 0.00 | 0.00 | 25 | 1010.4 |
| 20260503194543 | 78 | 277 | 4.0 | 7.0 | 0.00 | 0.00 | 0.00 | 27 | 1010.7 |
| 20260503193040 | 78 | 141 | 1.0 | 5.0 | 0.00 | 0.00 | 0.00 | 28 | 1011.0 |
| 20260503191553 | 76 | 217 | 1.0 | 6.0 | 0.00 | 0.00 | 0.00 | 29 | 1011.2 |
| 20260503190134 | 74 | 109 | 3.0 | 6.0 | 0.00 | 0.00 | 0.00 | 30 | 1011.4 |
| 20260503184533 | 74 | 103 | 1.0 | 4.0 | 0.00 | 0.00 | 0.00 | 36 | 1011.7 |
| 20260503183035 | 71 | 39 | 1.0 | 6.0 | 0.00 | 0.00 | 0.00 | 43 | 1011.8 |
| 20260503181524 | 71 | 65 | 1.0 | 5.0 | 0.00 | 0.00 | 0.00 | 39 | 1012.0 |
| 20260503180028 | 72 | 108 | 1.0 | 3.0 | 0.00 | 0.00 | 0.00 | 36 | 1012.3 |
| 20260503174522 | 68 | 109 | 0.0 | 3.0 | 0.00 | 0.00 | 0.00 | 43 | 1012.5 |
| 20260503173015 | 65 | 82 | 2.0 | 5.0 | 0.00 | 0.00 | 0.00 | 45 | 1012.8 |
| 20260503171516 | 63 | 89 | 2.0 | 5.0 | 0.00 | 0.00 | 0.00 | 48 | 1012.8 |
| 20260503090106 | 43 | 122 | 0.0 | 1.0 | 0.00 | 0.00 | 0.00 | 85 | 1014.1 |
| 20260503081558 | 44 | 27 | 0.0 | 1.0 | 0.00 | 0.00 | 0.00 | 82 | 1014.0 |
| 20260503071603 | 46 | 110 | 0.0 | 1.0 | 0.00 | 0.00 | 0.00 | 80 | 1013.9 |
| 20260503054552 | 51 | 200 | 0.0 | 1.0 | 0.00 | 0.00 | 0.00 | 70 | 1013.2 |
| 20260503053037 | 51 | 127 | 1.0 | 2.0 | 0.00 | 0.00 | 0.00 | 71 | 1013.1 |
| 20260503051546 | 52 | 105 | 1.0 | 2.0 | 0.00 | 0.00 | 0.00 | 70 | 1013.0 |
| 20260503050036 | 53 | 120 | 0.0 | 1.0 | 0.00 | 0.00 | 0.00 | 68 | 1013.0 |
| 20260503044536 | 54 | 24 | 1.0 | 2.0 | 0.00 | 0.00 | 0.00 | 67 | 1012.9 |
| 20260503043035 | 56 | 83 | 0.0 | 2.0 | 0.00 | 0.00 | 0.00 | 63 | 1012.6 |
| 20260503041534 | 57 | 196 | 0.0 | 2.0 | 0.00 | 0.00 | 0.00 | 61 | 1012.4 |
| 20260503040035 | 58 | 68 | 0.0 | 3.0 | 0.00 | 0.00 | 0.00 | 58 | 1012.3 |
| 20260503034533 | 60 | 208 | 0.0 | 4.0 | 0.00 | 0.00 | 0.00 | 52 | 1012.1 |
| 20260503033037 | 60 | 158 | 2.0 | 5.0 | 0.00 | 0.00 | 0.00 | 52 | 1011.8 |
| 20260503031536 | 62 | 132 | 0.0 | 2.0 | 0.00 | 0.00 | 0.00 | 54 | 1011.2 |
| 20260503030035 | 64 | 98 | 0.0 | 3.0 | 0.00 | 0.00 | 0.00 | 46 | 1010.9 |
| 20260503024540 | 66 | 156 | 0.0 | 1.0 | 0.00 | 0.00 | 0.00 | 44 | 1010.9 |
| 20260503023030 | 68 | 173 | 1.0 | 3.0 | 0.00 | 0.00 | 0.00 | 44 | 1010.9 |
| 20260503021533 | 70 | 59 | 2.0 | 4.0 | 0.00 | 0.00 | 0.00 | 38 | 1010.9 |
| 20260503020029 | 72 | 295 | 0.0 | 4.0 | 0.00 | 0.00 | 0.00 | 33 | 1011.0 |
| 20260503014528 | 73 | 93 | 0.0 | 6.0 | 0.00 | 0.00 | 0.00 | 32 | 1010.8 |
| 20260503013034 | 72 | 233 | 0.0 | 8.0 | 0.00 | 0.00 | 0.00 | 34 | 1010.8 |
| 20260503011527 | 71 | 91 | 5.0 | 10.0 | 0.00 | 0.00 | 0.00 | 32 | 1010.9 |
| 20260503010031 | 72 | 89 | 5.0 | 13.0 | 0.00 | 0.00 | 0.00 | 34 | 1010.9 |
| 20260503004526 | 73 | 78 | 7.0 | 13.0 | 0.00 | 0.00 | 0.00 | 32 | 1010.9 |
| 20260503003033 | 76 | 166 | 1.0 | 3.0 | 0.00 | 0.00 | 0.00 | 26 | 1010.8 |
| 20260503001524 | 76 | 257 | 0.0 | 3.0 | 0.00 | 0.00 | 0.00 | 25 | 1010.7 |
| 20260503000023 | 76 | 280 | 4.0 | 8.0 | 0.00 | 0.00 | 0.00 | 28 | 1010.6 |
| 20260502234528 | 76 | 274 | 2.0 | 5.0 | 0.00 | 0.00 | 0.00 | 26 | 1010.6 |
| 20260502233022 | 77 | 295 | 2.0 | 7.0 | 0.00 | 0.00 | 0.00 | 26 | 1010.6 |
| 20260502230018 | 79 | 335 | 4.0 | 7.0 | 0.00 | 0.00 | 0.00 | 25 | 1010.9 |
| 20260502224516 | 78 | 359 | 2.0 | 5.0 | 0.00 | 0.00 | 0.00 | 22 | 1011.0 |
| 20260502223013 | 79 | 290 | 3.0 | 6.0 | 0.00 | 0.00 | 0.00 | 22 | 1011.1 |